Accueil
METAR-TAF:

METAR-TAF

Aéroports :

Marion, Caroline du Sud, États-Unis

latitude: 34-10-52N, longitude: 079-20-05W, altitude: 28 m

Observation

Le bulletin a été fait il y a 22 minutes, à 22:35 UTC
Vent 7 kt de ouest/sud-ouest
Température 11°C
Humidité 40%
Pression 1016 hPa
Visibilité: 16.1 km
Ciel couvert à une hauteur de 9000 ft

METAR: KMAO 282235Z AUTO 25007KT 10SM OVC090 11/M02 A3000 RMK AO2

Heure: 17:57 (22:57 UTC)


TAF: absent

Observations et prévisions météorologiques de plus de 4000 aéroports (messages METAR et TAF).

Les stations disponibles sont représentées par des disques jaunes et rouges sur la carte.

Passer la souris dessus pour voir le nom de la station.

Cliquer dessus pour voir les observations et prévisions météorologiques.

Pour changer de carte: cliquez sur les boutons verts avec une croix noire pour zoomer, sur le bouton vert avec un tiret pour effectuer un zoom arrière, ou sur les flèches vertes pour les cartes adjacentes.


METAR-TAF: